Weather Roundup
Issued by NWS Springfield, MO

Home | Current Version | Previous Version | Text Only | Print | Product List | Glossary On
Versions: 1 2 3 4 5 6 7 8 9 10 11 12 13 14 15 16 17 18 19 20 21 22 23 24 25 26 27 28 29 30 31 32 33 34 35 36 37 38 39 40 41 42 43 44 45 46 47 48 49 50
000
NZUS99 KSGF 190557
HRRSGF

HOURLY WEATHER
NATIONAL WEATHER SERVICE SPRINGFIELD MO
1200 AM CST SUN NOV 19 2017

......SGF CWA......

CITY           SKY/WX    TMP DP  RH WIND       PRES   REMARKS
SPRINGFIELD    CLEAR     38  31  76 NW8       30.17R WCI  32
6HR MIN TEMP:  38; 6HR MAX TEMP:  43;

WEST PLAINS    CLEAR     41  28  60 NW14      30.12R
6HR MIN TEMP:  40; 6HR MAX TEMP:  44; 6HR PCP: TRACE;

ROLLA          CLEAR     36  26  67 NW8       30.12R WCI  30
6HR MIN TEMP:  36; 6HR MAX TEMP:  41;


......SURROUNDING SGF CWA......

CITY           SKY/WX    TMP DP  RH WIND       PRES   REMARKS
CHANUTE        CLEAR     39  28  64 NW8       30.25R WCI  33
PARSONS        CLEAR     35  29  78 NW6       30.26R WCI  30
COFFEYVILLE    CLEAR     39  29  67 NW5       30.26R
EMPORIA        CLEAR     33  25  72 W5        30.25R WCI  29
HARRISON AR    CLEAR     40  32  73 NW8       30.17R WCI  34

......KANSAS AND MISSOURI......

CITY           SKY/WX    TMP DP  RH WIND       PRES   REMARKS
KANSAS CTY INT CLEAR     33  26  75 NW6       30.21R WCI  28
SEDALIA        CLEAR     37  26  64 NW12      30.18R WCI  29
ST JOSEPH      CLEAR     29  23  78 NW7       30.21S WCI  22
ST LOUIS       CLEAR     38  27  64 NW14G26   30.07R WCI  30
WICHITA        CLEAR     37  25  61 NW5       30.28R WCI  33
TOPEKA         PTCLDY    35  28  75 W5        30.23S WCI  31
OLATHE         CLEAR     35  26  69 NW7       30.21R WCI  29

......TENNESSEE......

CITY           SKY/WX    TMP DP  RH WIND       PRES   REMARKS
MEMPHIS        NOT AVBL
NASHVILLE      CLOUDY    45  36  70 NW12      29.99R

......ARKANSAS.......

CITY           SKY/WX    TMP DP  RH WIND       PRES   REMARKS
FAYETTEVILLE   CLEAR     41  33  73 CALM      30.21S
FT SMITH       PTCLDY    38  32  79 W8        30.23R WCI  32
LITTLE ROCK    CLEAR     42  33  70 W6        30.20R

......OKLAHOMA.......

CITY           SKY/WX    TMP DP  RH WIND       PRES   REMARKS
TULSA          CLEAR     38  30  73 NW7       30.28R WCI  33
PONCA CITY     CLEAR     37  25  61 CALM      30.29R
MCALESTER      PTCLDY    36  32  85 CALM      30.27R
OKLAHOMA CITY  CLEAR     38  27  64 NW7       30.29S WCI  33

......IOWA............

CITY           SKY/WX    TMP DP  RH WIND       PRES   REMARKS
DES MOINES     NOT AVBL
QUAD CITIES    CLEAR     30  21  69 W12G21    29.99R WCI  20

......ILLINOIS........

CITY           SKY/WX    TMP DP  RH WIND       PRES   REMARKS
QUINCY         NOT AVBL
CHICAGO        CLOUDY    38  26  62 NW20G29   29.84R WCI  28



USA.gov is the U.S. government's official web portal to all federal, state and local government web resources and services.